OPS 4682 DEB, 38421

Orbit data source: Space-Track

OPS 4682 DEB, 38421 is space debris in LEO originally from a launch on Sat, 03 Apr 1965 UTC launched from the Air Force Western Test Range (AFWTR). Debris objects in space refer to the collection of defunct objects orbiting the Earth. Examples of debris include non-operational satellites, rocket bodies, and fragments generated from explosions, collisions, or faulty payload assembly.

Loading next visibility...
Identifier
38421, 1965-027EA
Orbit
LEO
Country
Flag of USUS
Related business
Manufacturer
Unknown
Mission
Spacecraft
Bus & Motor
Unknown
Mass
Unknown
Launch date (UTC)
1965-04-03 (61 years ago)
Launch vehicle
Unknown
Launch site
Air Force Western Test Range (AFWTR)
Object type
Payload
Rocket body
Debris
Shape & HBR
Unknown shape, 0.1 m
Radar Cross Section
Medium (>0.1 m² and <1 m²)

Expand to show TLE details & history
Last TLE update: 1 day ago

TLE from 1 day ago
0 OPS 4682 DEB
1 38421U 65027EA  26207.14883002  .00000574  00000-0  16275-2 0  9990
2 38421  90.2609   9.9735 0033568 187.5225 172.5404 13.09982530673722
Epoch: 2026-07-26T03:34Z
TLE epoch observation values (Epoch: 2026-07-26T03:34:18.913Z)
Latitude
-0°
Longitude
12.54378°
Altitude
1,251.428 km
Speed
7.217 km/s
True Right ascension
00h 39m 53s
True Declination
0° 00' 00"
Sunlit
Object was in daylight at epoch
Visualization orbit readout
Latitude
Unknown
Longitude
Unknown
Altitude
Unknown
Speed
Unknown
Apparent Right ascension
Unknown
Apparent Declination
Unknown
Sunlit
N/A
Visualization observer readout
Local Sidereal Time
20:31:08
Azimuth
Unknown
Elevation
Unknown
Doppler factor
Unknown
Orbital elements
Apogee altitude
1,245.842 km
Perigee altitude
1,194.829 km
Semi-major axis
7,598.472 km
Eccentricity
0.00336
Inclination
90.2609°
RAAN
9.9735°
Arg. of periapsis
187.5225°
True anomaly
172.59013°
Mean anomaly
172.5404°
Eccentric anomaly
172.56529°
Mean motion
3.27683 °/min
Orbital period
109.86 mins
BSTAR
0.0016275
Loading maneuver chart data...
Computing Atmospheric mass density...
Loading historical data...
Loading historical data...
Loading historical data...
Loading historical data...
Loading historical data...
Loading historical data...
Loading historical data...

Documentation

Showing up to 5 results
|